EWG6797 EDDG-LEPA

Flight info

Callsign EWG6797
Flight time N/A
Altitude 36000
Route DOMEG3E DOMEG Z841 GMH Q603 TESGA L603 BOMBI DCT GIGET DCT ABUKA DCT KRH DCT NATOR DCT LUTIX DCT BENOT DCT NEMOS DCT GEVEA DCT INCUS DCT BALSI DCT RETNO DCT TUPOX DCT MTG DCT DIVKO DCT VATIR N852 VERSO L129 LUNIK
Aircraft A320/M-SDE3FGHIRWY/LB1

Departure

Time 2026-04-26 11:10
Airport Münster Osnabrück Airport (EDDG)

Arrival

Time N/A
Airport Palma de Mallorca Airport (LEPA)
Time Latitude Longitude Altitude Speed Heading
2026-04-26 10:49 52.13274 7.69212 168 ft 0 kts 330°
2026-04-26 11:05 52.13278 7.69210 167 ft 3 kts 336°
2026-04-26 11:05 52.13315 7.69185 167 ft 9 kts 336°
2026-04-26 11:05 52.13329 7.69090 167 ft 9 kts 255°
2026-04-26 11:06 52.13309 7.68993 167 ft 8 kts 251°
2026-04-26 11:06 52.13301 7.68935 167 ft 9 kts 264°
2026-04-26 11:06 52.13350 7.68791 167 ft 14 kts 271°
2026-04-26 11:06 52.13319 7.68622 167 ft 16 kts 250°
2026-04-26 11:07 52.13281 7.68450 167 ft 16 kts 251°
2026-04-26 11:07 52.13247 7.68280 166 ft 16 kts 252°
2026-04-26 11:07 52.13213 7.68116 166 ft 15 kts 249°
2026-04-26 11:07 52.13178 7.67963 166 ft 14 kts 250°
2026-04-26 11:08 52.13148 7.67823 166 ft 12 kts 252°
2026-04-26 11:08 52.13124 7.67702 166 ft 10 kts 252°
2026-04-26 11:08 52.13103 7.67599 165 ft 10 kts 252°
2026-04-26 11:08 52.13078 7.67473 165 ft 14 kts 251°
2026-04-26 11:09 52.13041 7.67305 165 ft 17 kts 249°
2026-04-26 11:09 52.13047 7.67124 165 ft 16 kts 300°
2026-04-26 11:09 52.13142 7.67043 165 ft 14 kts
2026-04-26 11:09 52.13175 7.67102 164 ft 0 kts 73°
2026-04-26 11:10 52.13190 7.67176 164 ft 31 kts 71°
2026-04-26 11:10 52.13350 7.67933 166 ft 105 kts 70°
2026-04-26 11:10 52.13659 7.69347 238 ft 152 kts 70°
2026-04-26 11:10 52.13976 7.70945 1095 ft 148 kts 69°
2026-04-26 11:11 52.14315 7.72582 1722 ft 160 kts 67°
2026-04-26 11:11 52.14702 7.74400 2080 ft 181 kts 68°
2026-04-26 11:11 52.15147 7.76407 2476 ft 194 kts 68°
2026-04-26 11:11 52.15610 7.78489 3030 ft 198 kts 67°
2026-04-26 11:12 52.16068 7.80666 3476 ft 214 kts 74°
2026-04-26 11:12 52.15884 7.83204 3776 ft 246 kts 117°
2026-04-26 11:12 52.14658 7.85302 4224 ft 270 kts 148°
2026-04-26 11:12 52.12956 7.86693 4945 ft 278 kts 165°
2026-04-26 11:13 52.11045 7.86830 5786 ft 277 kts 194°
2026-04-26 11:13 52.09271 7.85788 6676 ft 275 kts 211°
2026-04-26 11:13 52.07546 7.84404 7507 ft 278 kts 208°
2026-04-26 11:13 52.05768 7.83105 8317 ft 282 kts 207°
2026-04-26 11:14 52.03953 7.81834 9129 ft 286 kts 207°
2026-04-26 11:14 52.02108 7.80557 9942 ft 290 kts 206°
2026-04-26 11:14 52.00241 7.79262 10634 ft 297 kts 207°
2026-04-26 11:14 51.98928 7.78343 10805 ft 312 kts 206°
2026-04-26 11:15 51.95990 7.77211 11194 ft 346 kts 180°
2026-04-26 11:15 51.93554 7.77525 11815 ft 355 kts 176°
2026-04-26 11:15 51.91088 7.77909 12511 ft 358 kts 176°
2026-04-26 11:15 51.88588 7.78312 13199 ft 363 kts 176°
2026-04-26 11:16 51.86066 7.78720 13878 ft 367 kts 177°
2026-04-26 11:16 51.83513 7.79128 14533 ft 370 kts 177°
2026-04-26 11:16 51.80932 7.79533 15158 ft 374 kts 176°
2026-04-26 11:16 51.78333 7.79939 15798 ft 377 kts 176°
2026-04-26 11:17 51.75717 7.80346 16454 ft 380 kts 176°
2026-04-26 11:17 51.73076 7.80753 17116 ft 383 kts 176°
2026-04-26 11:17 51.70411 7.81162 17733 ft 386 kts 176°
2026-04-26 11:17 51.67725 7.81577 18333 ft 390 kts 176°
2026-04-26 11:18 51.65014 7.82001 18873 ft 393 kts 176°
2026-04-26 11:18 51.62281 7.82429 19382 ft 396 kts 176°
2026-04-26 11:18 51.59572 7.82849 19909 ft 399 kts 176°
2026-04-26 11:18 51.56793 7.83276 20413 ft 402 kts 176°
2026-04-26 11:19 51.53997 7.83701 20903 ft 405 kts 176°
2026-04-26 11:19 51.51180 7.84127 21394 ft 408 kts 176°
2026-04-26 11:19 51.48342 7.84558 21870 ft 411 kts 176°
2026-04-26 11:19 51.45492 7.84993 22353 ft 414 kts 176°
2026-04-26 11:20 51.42618 7.85435 22822 ft 416 kts 176°
2026-04-26 11:20 51.40665 7.85737 23126 ft 418 kts 176°
2026-04-26 11:20 51.36813 7.86340 23733 ft 422 kts 176°
2026-04-26 11:20 51.33884 7.86796 24113 ft 425 kts 176°
2026-04-26 11:21 51.30935 7.87253 24495 ft 427 kts 176°
2026-04-26 11:21 51.27965 7.87708 24859 ft 429 kts 176°
2026-04-26 11:21 51.24986 7.88162 25219 ft 432 kts 176°
2026-04-26 11:21 51.22021 7.88612 25555 ft 434 kts 176°
2026-04-26 11:22 51.19007 7.89068 25893 ft 437 kts 176°
2026-04-26 11:22 51.15969 7.89527 26233 ft 439 kts 176°
2026-04-26 11:22 51.12920 7.89985 26562 ft 442 kts 176°
2026-04-26 11:22 51.09854 7.90446 26899 ft 444 kts 176°
2026-04-26 11:23 51.06773 7.90909 27220 ft 446 kts 176°
2026-04-26 11:23 51.03672 7.91376 27537 ft 449 kts 176°
2026-04-26 11:23 51.01570 7.91692 27754 ft 450 kts 176°
2026-04-26 11:23 50.99813 7.91955 27946 ft 451 kts 176°
2026-04-26 11:24 50.96682 7.92415 28279 ft 454 kts 176°
2026-04-26 11:24 50.93533 7.92889 28580 ft 456 kts 176°
2026-04-26 11:24 50.90364 7.93373 28886 ft 458 kts 176°
2026-04-26 11:24 50.87251 7.93849 29190 ft 460 kts 176°
2026-04-26 11:25 50.84056 7.94331 29498 ft 462 kts 176°
2026-04-26 11:25 50.80854 7.94809 29780 ft 464 kts 176°
2026-04-26 11:25 50.77636 7.95288 30061 ft 466 kts 176°
2026-04-26 11:25 50.74400 7.95772 30337 ft 467 kts 176°
2026-04-26 11:26 50.71153 7.96255 30572 ft 469 kts 176°
2026-04-26 11:26 50.67896 7.96736 30794 ft 471 kts 176°
2026-04-26 11:26 50.64674 7.97212 31078 ft 471 kts 176°
2026-04-26 11:26 50.61372 7.97701 31428 ft 470 kts 176°
2026-04-26 11:27 50.58507 7.98123 31714 ft 469 kts 176°
2026-04-26 11:27 50.55540 7.98559 32009 ft 468 kts 176°
2026-04-26 11:27 50.52326 7.99035 32322 ft 468 kts 176°
2026-04-26 11:27 50.49045 7.99519 32680 ft 467 kts 176°
2026-04-26 11:28 50.45857 7.99986 32982 ft 466 kts 176°
2026-04-26 11:28 50.42632 8.00458 33298 ft 466 kts 176°
2026-04-26 11:28 50.39405 8.00937 33613 ft 465 kts 176°
2026-04-26 11:28 50.36188 8.01415 33938 ft 464 kts 176°
2026-04-26 11:29 50.32976 8.01893 34248 ft 463 kts 177°
2026-04-26 11:29 50.29767 8.02368 34523 ft 463 kts 177°
2026-04-26 11:29 50.26569 8.02832 34788 ft 462 kts 177°
2026-04-26 11:29 50.23375 8.03291 35058 ft 461 kts 177°
2026-04-26 11:30 50.20182 8.03749 35318 ft 460 kts 177°